This demonstration page uses our WeatherBlox Daily Observations layout. Learn more.

Left ArrowRight Arrow

Hourly Observations for January 15, 2022

Temp ( °F °C ) Dew Point ( °F °C ) Humidity (%) Winds ( mph kmh ) Pressure ( in mb ) Visibility ( mi km ) Precip ( " mm )
12:53 am 00:53 Clear 40 4.4 34 1.1 79 79 Calm 29.99 1016 10 16 0.00 0.00
1:53 am 01:53 Clear 40 4.4 33 0.6 77 77 Calm 30.00 1016 10 16 0.00 0.00
2:53 am 02:53 Clear 39 3.9 34 1.1 82 82 Calm 29.99 1016 10 16 0.00 0.00
3:53 am 03:53 Clear 37 2.8 34 1.1 89 89 ENE 3 6 30.00 1016 10 16 0.00 0.00
4:53 am 04:53 Clear 37 2.8 33 0.6 86 86 NE 3 6 30.01 1016 10 16 0.00 0.00
5:53 am 05:53 Clear 37 2.8 34 1.1 89 89 Calm 30.04 1017 10 16 0.00 0.00
6:53 am 06:53 Clear 36 2.2 34 1.1 93 93 Calm 30.03 1017 10 16 0.00 0.00
7:53 am 07:53 Mostly Sunny 38 3.3 36 2.2 93 93 Calm 30.06 1018 10 16 0.00 0.00
8:53 am 08:53 Mostly Cloudy 40 4.4 35 1.7 83 83 ENE 3 6 30.07 1018 10 16 0.00 0.00
9:53 am 09:53 Cloudy 43 6.1 35 1.7 74 74 NE 6 9 30.09 1019 10 16 0.00 0.00
10:53 am 10:53 Cloudy 44 6.7 33 0.6 65 65 ENE 8 13 30.10 1019 10 16 0.00 0.00
11:53 am 11:53 Cloudy 45 7.2 32 0 61 61 ENE 9 15 30.09 1019 10 16 0.00 0.00
12:53 pm 12:53 Sunny 46 7.8 32 0 58 58 ENE 10 17 30.07 1018 10 16 0.00 0.00
1:53 pm 13:53 Sunny 47 8.3 33 0.6 59 59 ENE 8 13 30.03 1017 10 16 0.00 0.00
2:53 pm 14:53 Partly Cloudy 47 8.3 32 0 56 56 ENE 9 15 30.01 1016 10 16 0.00 0.00
3:53 pm 15:53 Mostly Cloudy 47 8.3 32 0 56 56 E 9 15 30.01 1016 10 16 0.00 0.00
4:53 pm 16:53 Mostly Cloudy 46 7.8 32 0 58 58 E 13 20 29.99 1016 10 16 0.00 0.00
5:53 pm 17:53 Cloudy 45 7.2 32 0 61 61 E 10 17 29.99 1016 10 16 0.00 0.00
6:53 pm 18:53 Cloudy 45 7.2 32 0 61 61 ENE 9 15 29.98 1015 10 16 0.00 0.00
7:53 pm 19:53 Cloudy 45 7.2 32 0 61 61 ENE 12 19 29.99 1016 10 16 0.00 0.00
8:53 pm 20:53 Cloudy with Light Rain 44 6.7 34 1.1 68 68 E 16 26 29.99 1016 10 16 0.00 0.00
9:53 pm 21:53 Cloudy with Light Rain 42 5.6 35 1.7 76 76 E 10 17 29.99 1016 10 16 0.01 0.25
10:53 pm 22:53 Cloudy with Light Rain 41 5 36 2.2 82 82 E 12 19 30.00 1016 7 11 0.06 1.52
11:53 pm 23:53 Cloudy with Light Rain 40 4.4 37 2.8 89 89 E 10 17 29.96 1015 6 10 0.08 2.03
11:56 pm 23:56 Cloudy with Light Rain 40 4.4 37 2.8 89 89 E 14 22 29.98 1015 6 10 0.01 0.25

Powered by AerisWeather